OBJECT B, 61870

Orbit data source: Space-Track

You're viewing an Uncataloged Satellite

Recently launched and/or uncataloged satellites may have evolving metadata. Metadata may include but not limited to: Owner, Maufacturer, Bus, Motor, and Mission.

OBJECT B, 61870 is a satellite owned by Hangtian Hongtu (CN) in SSO that was launched on Sat, 09 Nov 2024 UTC via a CHANG ZHENG 2C launch vehicle from the Jiuquan Satellite Launch Center, China (JSC). Unknown objects in Earth's orbit typically refer to objects detected orbiting the Earth but have not yet been identified or cataloged. These objects could be anything from previously untracked satellites, spent rocket stages, debris from satellite collisions, or even natural meteoroids temporarily captured by Earth's gravity.

Loading next visibility...
Identifier
61870, 2024-203B
Orbit
SSO
Country
Flag of CNCN / PRC
Related business
Manufacturer
Yinhe
Mission
Operational Commercial Radar Imaging
Bus & Motor
PIESAT, Unknown motor
Mass
270 kg wet, 270 kg dry
Launch date (UTC)
2024-11-09 (1 year ago)
Launch vehicle
CHANG ZHENG 2C
Launch site
Jiuquan Satellite Launch Center, China (JSC)
Object type
Unknown
Shape & HBR
Box + 2 Pan, 2.0 m
Radar Cross Section
2.315 m², Large (>1 m²)

Expand to show TLE details & history
Last TLE update: 4 hours ago

TLE from 4 hours ago
0 OBJECT B
1 61870U 24203B   25297.99737795  .00018147  00000-0  77428-3 0  9996
2 61870  97.4475   4.4153 0014430  78.1557 282.1297 15.22872240 53082
Epoch: 2025-10-24T23:56Z
TLE epoch observation values (Epoch: 2025-10-24T23:56:13.454Z)
Latitude
-0.00005°
Longitude
-28.275°
Altitude
498.204 km
Speed
7.617 km/s
True Right ascension
00h 17m 39s
True Declination
0° 00' 00"
Sunlit
Object was in full shadow at epoch
Visualization orbit readout
Latitude
Unknown
Longitude
Unknown
Altitude
Unknown
Speed
Unknown
Apparent Right ascension
Unknown
Apparent Declination
Unknown
Sunlit
N/A
Visualization observer readout
Local Sidereal Time
23:28:56
Azimuth
Unknown
Elevation
Unknown
Doppler factor
Unknown
Orbital elements
Apogee altitude
504.063 km
Perigee altitude
484.229 km
Semi-major axis
6,872.283 km
Eccentricity
0.00144
Inclination
97.4475°
RAAN
4.4153°
Arg. of periapsis
78.1557°
True anomaly
281.96797°
Mean anomaly
282.1297°
Eccentric anomaly
282.04884°
Mean motion
3.80971 °/min
Orbital period
94.5 mins
BSTAR
0.00077428
Loading maneuver chart data...
Computing Atmospheric mass density...
Loading historical data...
Loading historical data...
Loading historical data...
Loading historical data...
Loading historical data...
Loading historical data...
Loading historical data...
Other satellites on launch #203 in the year 2024 (2024-11-09 UTC)

Documentation

Showing up to 5 results
|